SCP
0 -0 0 -0 0 -0 0 0 0 -0 -1 -0 -0 0 0 0 0 0 -0 0 -0 -0 -0 0 0 0 0 -0 0 0 -0 0 0
0 0 0 0 -0 -0 -0 0 0 -0 -2 -1 0 1 1 0 0 0 0 0 0 -0 -0 -0 0 0 -0 -0 0 0 0 0 -0
0 0 0 0 0 -0 -0 0 -1 -0 0 -2 -0 -0 0 1 0 0 0 0 -0 -0 -0 -0 0 0 -0 0 0 0 0 -0 0
0 0 0 0 -0 0 0 -0 -0 0 0 -0 -0 -0 -0 -0 0 0 0 0 0 -0 0 0 0 0 0 0 0 0 0 0 0
0 0 0 0 0 0 0 0 -1 0 0 0 -0 -0 -0 -0 0 0 0 0 0 0 0 0 0 -0 0 0 0 0 0 0 0
0 0 0 0 0 0 0 0 0 0 -1 -0 -0 -0 -0 0 -0 -0 0 0 1 0 0 0 0 0 0 0 0 0 0 0 0
1 1 1 1 0 0 0 -0 -0 -0 -0 -0 -0 -0 -0 0 0 0 0 0 0 0 0 0 1 1 0 0 0 0 -0 0 0
1 1 1 1 1 1 0 0 -0 -0 -0 0 -0 -0 0 0 1 0 0 0 1 0 1 1 0 0 1 0 0 0 0 0 0
1 1 1 1 1 1 1 1 0 0 0 -0 0 0 0 0 1 1 1 0 1 0 0 0 0 0 0 0 0 0 0 0 0
2 1 1 1 1 1 1 1 1 1 1 1 1 0 1 1 0 1 1 1 1 1 0 0 -0 -0 0 0 0 -0 -0 -0 0
1 1 1 1 1 0 0 1 1 2 2 1 1 1 1 1 1 1 1 1 1 1 0 0 0 -0 -0 -0 -0 -0 -0 -0 -0
1 1 1 1 0 1 0 1 1 2 3 3 2 1 1 1 1 1 1 1 1 0 0 0 0 0 0 -0 -0 0 0 0 0
0 0 0 0 0 0 1 1 1 1 2 3 2 1 1 1 1 1 1 1 1 1 0 0 0 0 -0 -0 0 0 0 0 0
0 0 0 0 0 0 1 1 1 1 1 3 3 3 3 2 2 1 1 1 1 1 1 1 1 0 0 0 0 0 0 0 0
0 0 0 0 0 0 0 0 1 1 2 1 1 2 2 3 2 2 1 1 1 1 2 1 1 1 1 2 1 0 0 0 0
0 0 0 0 0 0 0 0 1 1 1 1 1 1 1 2 2 2 1 1 2 2 2 3 2 3 2 3 1 0 0 0 0
0 0 0 0 0 0 0 0 0 1 0 1 1 1 1 1 1 2 2 2 2 3 3 3 4 4 4 2 2 1 0 0 0
0 0 0 0 0 0 0 0 0 0 0 1 1 1 1 1 1 1 1 0 0 0 0 0 1 1 2 1 2 1 0 0 0
0 0 0 0 0 0 0 0 0 0 0 1 1 1 1 1 1 1 1 1 0 0 0 1 0 0 0 0 0 0 0 0 0
0 0 0 0 0 0 0 0 0 0 0 0 0 0 1 1 1 1 1 1 -0 0 0 0 0 0 0 0 0 0 0 0 0
Wind_Speed_500mb
9 10 8 11 45 47 61 18 47 35 51 41 44 46 42 33 28 36 43 41 24 32 38 42 39 40 37 28 24 20 17 20 19
18 5 3 1 2 77 49 53 50 42 31 36 40 37 39 34 31 30 37 41 32 30 36 42 45 44 35 30 21 24 22 22 21
20 11 1 2 7 3 49 59 53 48 39 41 38 38 37 37 36 34 39 32 38 41 46 47 35 32 32 22 24 26 27 19 19
19 15 6 4 7 13 17 29 33 33 24 30 33 30 36 33 33 35 36 39 37 33 45 37 42 35 33 28 25 23 22 22 23
15 15 13 6 5 9 15 26 32 28 31 27 28 33 37 37 34 30 32 42 41 35 53 39 36 30 32 34 23 22 22 22 22
17 11 11 11 6 7 12 18 24 24 52 26 32 35 41 40 35 27 31 33 41 41 35 57 43 33 37 33 23 21 23 26 19
17 16 13 14 8 5 6 13 27 39 45 42 48 45 40 41 40 36 35 45 30 44 42 36 51 47 40 36 31 28 29 24 22
18 16 18 11 18 7 5 11 16 20 23 31 47 34 37 39 42 39 38 37 37 35 40 40 38 47 49 39 34 32 22 29 28
19 25 19 15 11 9 2 9 18 23 30 30 30 41 44 45 41 44 44 38 42 38 41 39 45 47 44 41 38 25 31 37 32
23 25 20 16 13 11 9 5 10 19 27 34 37 36 39 40 44 46 45 41 43 45 47 47 49 51 41 39 36 36 38 42 45
23 22 20 19 15 12 10 8 12 5 24 31 36 37 36 40 43 46 46 44 45 45 47 48 50 48 45 42 40 38 40 44 42
15 16 16 16 17 17 11 13 12 15 13 22 32 35 40 40 44 46 45 45 44 41 40 42 46 46 44 43 44 40 32 31 32
17 15 15 16 17 17 15 17 15 16 15 18 24 30 34 39 42 45 48 51 47 43 42 44 42 44 45 41 44 39 37 34 35
7 12 14 16 15 15 16 18 19 17 16 16 21 19 22 39 44 48 52 51 51 47 45 43 47 42 41 40 46 39 41 41 37
14 16 20 21 21 19 18 19 19 18 20 24 28 31 28 23 37 47 55 56 55 51 49 47 45 42 40 40 53 47 46 42 40
27 27 28 28 31 34 33 30 28 27 27 30 31 32 26 33 38 41 52 56 56 59 55 51 51 47 50 49 47 50 46 45 38
32 34 35 35 35 38 43 46 48 44 43 33 34 37 35 28 30 37 45 55 63 58 61 58 54 51 52 50 47 55 44 37 38
36 38 38 40 42 40 43 48 53 55 51 44 40 39 40 39 38 39 40 51 62 71 56 52 37 37 42 46 52 63 44 28 35
44 44 44 45 45 45 45 49 53 58 58 54 50 49 45 36 36 36 29 40 35 32 20 39 36 55 63 64 48 58 41 31 28
48 46 47 47 46 51 55 56 57 61 62 58 55 52 51 43 39 35 32 30 16 12 52 60 83 86 70 68 69 60 45 42 36
Wind_Direction_500mb
51 336 354 304 154 172 175 12 189 182 201 201 201 200 220 219 211 219 216 227 226 219 206 227 222 232 222 224 231 256 265 259 265
66 40 345 53 65 174 162 154 197 181 203 199 202 204 216 220 220 211 214 223 213 216 226 211 240 234 223 209 222 254 255 261 262
69 80 54 145 183 209 157 157 180 192 192 211 204 200 219 220 217 213 213 209 207 208 222 222 230 227 226 228 230 243 250 253 258
62 91 98 183 173 166 154 171 199 199 201 205 215 201 220 218 218 219 216 206 210 225 216 232 211 232 234 229 230 230 244 257 254
54 59 81 114 175 172 192 178 197 191 171 222 230 219 218 217 222 223 217 208 214 235 218 209 204 206 216 243 237 233 245 253 245
101 122 90 92 114 159 196 192 197 202 200 232 216 221 218 214 224 229 221 227 225 225 227 229 224 225 234 239 243 230 241 250 239
99 85 74 69 107 157 203 223 208 195 207 200 210 209 211 217 217 221 223 227 237 229 227 228 233 233 237 242 242 239 229 249 253
91 80 75 49 29 143 192 209 216 212 227 227 217 207 209 220 224 221 222 221 228 225 227 233 236 227 234 239 236 230 228 237 255
99 85 65 56 46 30 64 219 217 231 223 245 244 219 220 215 225 228 230 225 223 228 231 235 241 231 232 230 223 216 234 251 251
73 73 70 54 40 35 5 3 246 238 236 234 245 242 226 225 227 230 235 235 228 227 232 236 232 232 227 229 229 215 236 243 252
61 58 54 46 28 13 354 318 286 176 236 234 234 243 250 243 241 240 237 234 241 239 233 230 228 225 224 226 231 236 233 243 253
46 44 38 28 17 10 15 13 350 316 247 242 245 238 241 240 239 239 242 239 240 241 235 229 224 222 222 223 229 232 229 240 248
18 19 17 14 8 5 10 359 348 323 306 295 273 260 253 248 243 241 239 243 243 240 233 229 228 227 226 224 231 232 229 234 244
333 335 340 348 352 354 352 347 345 340 319 298 297 274 256 252 251 243 242 243 243 239 234 227 228 223 225 224 231 233 234 240 244
294 299 305 312 316 319 323 328 324 323 320 303 288 275 266 262 251 249 246 243 239 237 237 230 224 220 224 224 236 237 241 248 254
287 286 287 289 294 297 300 299 307 303 301 306 311 308 295 274 256 255 249 241 240 236 230 228 221 225 224 226 237 251 254 253 246
296 293 291 286 281 284 288 291 292 288 289 294 297 296 300 292 287 278 269 253 242 237 231 225 216 220 230 229 235 253 258 243 238
307 302 298 291 285 279 280 285 285 287 291 290 285 290 285 287 292 277 275 270 259 239 226 220 223 239 245 240 237 246 261 248 233
294 293 291 289 287 285 280 279 280 279 284 286 282 277 283 285 295 276 279 290 299 291 251 244 237 252 243 253 253 246 253 235 224
288 291 288 285 285 283 280 276 274 277 280 284 286 274 267 267 271 276 279 272 301 295 193 204 217 243 242 241 242 235 226 232 232
Wind_Speed_850mb
9 10 8 11 45 47 61 18 47 35 51 41 44 46 42 33 28 36 43 41 24 32 38 42 39 40 37 28 24 20 17 20 19
18 5 3 1 2 77 49 53 50 42 31 36 40 37 39 34 31 30 37 41 32 30 36 42 45 44 35 30 21 24 22 22 21
20 11 1 2 7 3 49 59 53 48 39 41 38 38 37 37 36 34 39 32 38 41 46 47 35 32 32 22 24 26 27 19 19
19 15 6 4 7 13 17 29 33 33 24 30 33 30 36 33 33 35 36 39 37 33 45 37 42 35 33 28 25 23 22 22 23
15 15 13 6 5 9 15 26 32 28 31 27 28 33 37 37 34 30 32 42 41 35 53 39 36 30 32 34 23 22 22 22 22
17 11 11 11 6 7 12 18 24 24 52 26 32 35 41 40 35 27 31 33 41 41 35 57 43 33 37 33 23 21 23 26 19
17 16 13 14 8 5 6 13 27 39 45 42 48 45 40 41 40 36 35 45 30 44 42 36 51 47 40 36 31 28 29 24 22
18 16 18 11 18 7 5 11 16 20 23 31 47 34 37 39 42 39 38 37 37 35 40 40 38 47 49 39 34 32 22 29 28
19 25 19 15 11 9 2 9 18 23 30 30 30 41 44 45 41 44 44 38 42 38 41 39 45 47 44 41 38 25 31 37 32
23 25 20 16 13 11 9 5 10 19 27 34 37 36 39 40 44 46 45 41 43 45 47 47 49 51 41 39 36 36 38 42 45
23 22 20 19 15 12 10 8 12 5 24 31 36 37 36 40 43 46 46 44 45 45 47 48 50 48 45 42 40 38 40 44 42
15 16 16 16 17 17 11 13 12 15 13 22 32 35 40 40 44 46 45 45 44 41 40 42 46 46 44 43 44 40 32 31 32
17 15 15 16 17 17 15 17 15 16 15 18 24 30 34 39 42 45 48 51 47 43 42 44 42 44 45 41 44 39 37 34 35
7 12 14 16 15 15 16 18 19 17 16 16 21 19 22 39 44 48 52 51 51 47 45 43 47 42 41 40 46 39 41 41 37
14 16 20 21 21 19 18 19 19 18 20 24 28 31 28 23 37 47 55 56 55 51 49 47 45 42 40 40 53 47 46 42 40
27 27 28 28 31 34 33 30 28 27 27 30 31 32 26 33 38 41 52 56 56 59 55 51 51 47 50 49 47 50 46 45 38
32 34 35 35 35 38 43 46 48 44 43 33 34 37 35 28 30 37 45 55 63 58 61 58 54 51 52 50 47 55 44 37 38
36 38 38 40 42 40 43 48 53 55 51 44 40 39 40 39 38 39 40 51 62 71 56 52 37 37 42 46 52 63 44 28 35
44 44 44 45 45 45 45 49 53 58 58 54 50 49 45 36 36 36 29 40 35 32 20 39 36 55 63 64 48 58 41 31 28
48 46 47 47 46 51 55 56 57 61 62 58 55 52 51 43 39 35 32 30 16 12 52 60 83 86 70 68 69 60 45 42 36
Wind_Direction_850mb
51 336 354 304 154 172 175 12 189 182 201 201 201 200 220 219 211 219 216 227 226 219 206 227 222 232 222 224 231 256 265 259 265
66 40 345 53 65 174 162 154 197 181 203 199 202 204 216 220 220 211 214 223 213 216 226 211 240 234 223 209 222 254 255 261 262
69 80 54 145 183 209 157 157 180 192 192 211 204 200 219 220 217 213 213 209 207 208 222 222 230 227 226 228 230 243 250 253 258
62 91 98 183 173 166 154 171 199 199 201 205 215 201 220 218 218 219 216 206 210 225 216 232 211 232 234 229 230 230 244 257 254
54 59 81 114 175 172 192 178 197 191 171 222 230 219 218 217 222 223 217 208 214 235 218 209 204 206 216 243 237 233 245 253 245
101 122 90 92 114 159 196 192 197 202 200 232 216 221 218 214 224 229 221 227 225 225 227 229 224 225 234 239 243 230 241 250 239
99 85 74 69 107 157 203 223 208 195 207 200 210 209 211 217 217 221 223 227 237 229 227 228 233 233 237 242 242 239 229 249 253
91 80 75 49 29 143 192 209 216 212 227 227 217 207 209 220 224 221 222 221 228 225 227 233 236 227 234 239 236 230 228 237 255
99 85 65 56 46 30 64 219 217 231 223 245 244 219 220 215 225 228 230 225 223 228 231 235 241 231 232 230 223 216 234 251 251
73 73 70 54 40 35 5 3 246 238 236 234 245 242 226 225 227 230 235 235 228 227 232 236 232 232 227 229 229 215 236 243 252
61 58 54 46 28 13 354 318 286 176 236 234 234 243 250 243 241 240 237 234 241 239 233 230 228 225 224 226 231 236 233 243 253
46 44 38 28 17 10 15 13 350 316 247 242 245 238 241 240 239 239 242 239 240 241 235 229 224 222 222 223 229 232 229 240 248
18 19 17 14 8 5 10 359 348 323 306 295 273 260 253 248 243 241 239 243 243 240 233 229 228 227 226 224 231 232 229 234 244
333 335 340 348 352 354 352 347 345 340 319 298 297 274 256 252 251 243 242 243 243 239 234 227 228 223 225 224 231 233 234 240 244
294 299 305 312 316 319 323 328 324 323 320 303 288 275 266 262 251 249 246 243 239 237 237 230 224 220 224 224 236 237 241 248 254
287 286 287 289 294 297 300 299 307 303 301 306 311 308 295 274 256 255 249 241 240 236 230 228 221 225 224 226 237 251 254 253 246
296 293 291 286 281 284 288 291 292 288 289 294 297 296 300 292 287 278 269 253 242 237 231 225 216 220 230 229 235 253 258 243 238
307 302 298 291 285 279 280 285 285 287 291 290 285 290 285 287 292 277 275 270 259 239 226 220 223 239 245 240 237 246 261 248 233
294 293 291 289 287 285 280 279 280 279 284 286 282 277 283 285 295 276 279 290 299 291 251 244 237 252 243 253 253 246 253 235 224
288 291 288 285 285 283 280 276 274 277 280 284 286 274 267 267 271 276 279 272 301 295 193 204 217 243 242 241 242 235 226 232 232